Time,TemperatureF,DewpointF,PressureIn,WindDirection,WindDirectionDegrees,WindSpeedMPH,WindSpeedGustMPH,Humidity,HourlyPrecipIn,Conditions,Clouds,dailyrainin,SoftwareType,DateUTC
2013-03-30 00:10:00,42.0,35.0,30.09,SE,140,5.0,10.0,77,0.00,,,0.00,weatherlink.com 1.10,2013-03-30 05:10:00,
2013-03-30 00:25:00,42.4,35.0,30.08,SE,132,3.0,9.0,75,0.00,,,0.00,weatherlink.com 1.10,2013-03-30 05:25:00,
2013-03-30 00:40:00,42.4,35.0,30.07,ESE,108,3.0,8.0,75,0.00,,,0.00,weatherlink.com 1.10,2013-03-30 05:40:00,
2013-03-30 00:55:00,42.3,35.0,30.07,SE,124,4.0,9.0,76,0.00,,,0.00,weatherlink.com 1.10,2013-03-30 05:55:00,
2013-03-30 01:10:00,42.1,35.0,30.06,SE,139,2.0,7.0,76,0.00,,,0.00,weatherlink.com 1.10,2013-03-30 06:10:00,
2013-03-30 01:25:00,41.7,35.0,30.06,SE,136,2.0,9.0,77,0.00,,,0.00,weatherlink.com 1.10,2013-03-30 06:25:00,
2013-03-30 01:40:00,41.7,35.0,30.05,SE,146,2.0,8.0,77,0.00,,,0.00,weatherlink.com 1.10,2013-03-30 06:40:00,
2013-03-30 01:55:00,41.6,35.0,30.05,South,179,2.0,8.0,77,0.00,,,0.00,weatherlink.com 1.10,2013-03-30 06:55:00,
2013-03-30 02:10:00,41.7,35.0,30.06,SE,146,1.0,7.0,77,0.00,,,0.00,weatherlink.com 1.10,2013-03-30 07:10:00,
2013-03-30 02:25:00,41.9,35.0,30.05,SSW,209,1.0,8.0,77,0.00,,,0.00,weatherlink.com 1.10,2013-03-30 07:25:00,
2013-03-30 02:40:00,41.6,35.0,30.05,East,101,2.0,10.0,78,0.00,,,0.00,weatherlink.com 1.10,2013-03-30 07:40:00,
2013-03-30 02:55:00,41.3,35.0,30.05,SE,139,2.0,9.0,79,0.00,,,0.00,weatherlink.com 1.10,2013-03-30 07:55:00,
2013-03-30 03:10:00,41.4,35.0,30.04,SSE,154,3.0,8.0,79,0.00,,,0.00,weatherlink.com 1.10,2013-03-30 08:10:00,
2013-03-30 03:25:00,41.5,35.0,30.03,ESE,111,2.0,10.0,78,0.00,,,0.00,weatherlink.com 1.10,2013-03-30 08:25:00,
2013-03-30 03:40:00,40.9,35.0,30.02,ESE,104,3.0,8.0,80,0.00,,,0.00,weatherlink.com 1.10,2013-03-30 08:40:00,
2013-03-30 03:55:00,40.3,35.0,30.02,SSE,154,6.0,10.0,81,0.00,,,0.00,weatherlink.com 1.10,2013-03-30 08:55:00,
2013-03-30 04:10:00,39.8,35.0,30.02,SSW,208,4.0,9.0,82,0.00,,,0.00,weatherlink.com 1.10,2013-03-30 09:10:00,
2013-03-30 04:25:00,39.2,35.0,30.01,SW,230,4.0,10.0,84,0.00,,,0.00,weatherlink.com 1.10,2013-03-30 09:25:00,
2013-03-30 04:40:00,38.6,35.0,30.01,South,185,3.0,5.0,85,0.00,,,0.00,weatherlink.com 1.10,2013-03-30 09:40:00,
2013-03-30 04:55:00,37.8,34.0,30.01,SSE,157,1.0,4.0,87,0.00,,,0.00,weatherlink.com 1.10,2013-03-30 09:55:00,
2013-03-30 05:11:00,37.4,34.0,30.00,SSW,198,1.0,4.0,88,0.00,,,0.00,weatherlink.com 1.10,2013-03-30 10:11:00,
2013-03-30 05:26:00,38.3,35.0,30.00,SSE,162,0.0,7.0,86,0.00,,,0.00,weatherlink.com 1.10,2013-03-30 10:26:00,
2013-03-30 05:41:00,38.7,35.0,30.00,SSE,150,0.0,5.0,86,0.00,,,0.00,weatherlink.com 1.10,2013-03-30 10:41:00,
2013-03-30 05:56:00,39.0,35.0,29.99,SSE,161,0.0,6.0,85,0.00,,,0.00,weatherlink.com 1.10,2013-03-30 10:56:00,
2013-03-30 06:11:00,38.9,35.0,29.99,SSW,212,3.0,8.0,85,0.00,,,0.00,weatherlink.com 1.10,2013-03-30 11:11:00,
2013-03-30 06:41:00,39.8,35.0,29.98,SW,236,2.0,10.0,84,0.00,,,0.00,weatherlink.com 1.10,2013-03-30 11:41:00,
2013-03-30 07:11:00,41.0,36.0,29.98,SSW,207,2.0,7.0,82,0.00,,,0.00,weatherlink.com 1.10,2013-03-30 12:11:00,
2013-03-30 07:26:00,40.7,36.0,29.97,ESE,117,5.0,7.0,83,0.00,,,0.00,weatherlink.com 1.10,2013-03-30 12:26:00,
2013-03-30 07:41:00,40.6,36.0,29.98,SW,223,1.0,8.0,84,0.00,,,0.00,weatherlink.com 1.10,2013-03-30 12:41:00,
2013-03-30 08:11:00,40.7,37.0,29.97,ESE,105,2.0,8.0,85,0.00,,,0.00,weatherlink.com 1.10,2013-03-30 13:11:00,
2013-03-30 08:26:00,41.2,37.0,29.97,SE,136,2.0,5.0,84,0.00,,,0.00,weatherlink.com 1.10,2013-03-30 13:26:00,
2013-03-30 08:56:00,39.9,36.0,29.95,ESE,112,7.0,7.0,87,0.00,,,0.00,weatherlink.com 1.10,2013-03-30 13:56:00,
2013-03-30 09:11:00,41.1,38.0,29.95,SE,134,3.0,7.0,87,0.00,,,0.00,weatherlink.com 1.10,2013-03-30 14:11:00,
2013-03-30 09:26:00,44.0,39.0,29.94,SE,125,3.0,7.0,83,0.00,,,0.00,weatherlink.com 1.10,2013-03-30 14:26:00,
2013-03-30 09:41:00,45.1,40.0,29.93,ESE,123,3.0,10.0,82,0.00,,,0.00,weatherlink.com 1.10,2013-03-30 14:41:00,
2013-03-30 09:56:00,46.7,41.0,29.93,ESE,108,0.0,7.0,81,0.00,,,0.00,weatherlink.com 1.10,2013-03-30 14:56:00,
2013-03-30 10:26:00,48.6,44.0,29.92,SW,224,10.0,16.0,83,0.00,,,0.00,weatherlink.com 1.10,2013-03-30 15:26:00,
2013-03-30 10:42:00,50.1,45.0,29.92,SE,145,6.0,14.0,83,0.00,,,0.00,weatherlink.com 1.10,2013-03-30 15:42:00,
2013-03-30 10:57:00,51.4,46.0,29.91,SSW,212,7.0,13.0,83,0.00,,,0.00,weatherlink.com 1.10,2013-03-30 15:57:00,
2013-03-30 11:11:00,52.0,47.0,29.91,SSW,208,6.0,20.0,83,0.00,,,0.00,weatherlink.com 1.10,2013-03-30 16:11:00,
2013-03-30 11:27:00,51.5,47.0,29.91,SW,215,6.0,14.0,85,0.00,,,0.00,weatherlink.com 1.10,2013-03-30 16:27:00,
2013-03-30 11:42:00,50.8,47.0,29.91,SW,232,9.0,15.0,86,0.00,,,0.00,weatherlink.com 1.10,2013-03-30 16:42:00,
2013-03-30 11:57:00,50.2,47.0,29.91,West,262,3.0,10.0,87,0.00,,,0.00,weatherlink.com 1.10,2013-03-30 16:57:00,
2013-03-30 12:12:00,49.5,46.0,29.92,WSW,248,2.0,7.0,89,0.00,,,0.00,weatherlink.com 1.10,2013-03-30 17:12:00,
2013-03-30 12:27:00,49.3,46.0,29.91,WSW,243,4.0,6.0,89,0.00,,,0.00,weatherlink.com 1.10,2013-03-30 17:27:00,
2013-03-30 12:42:00,49.3,45.0,29.91,WSW,255,4.0,8.0,86,0.00,,,0.00,weatherlink.com 1.10,2013-03-30 17:42:00,
2013-03-30 12:57:00,49.1,45.0,29.91,West,263,2.0,10.0,86,0.00,,,0.00,weatherlink.com 1.10,2013-03-30 17:57:00,
2013-03-30 13:12:00,49.6,46.0,29.90,WSW,246,6.0,7.0,87,0.00,,,0.00,weatherlink.com 1.10,2013-03-30 18:12:00,
2013-03-30 13:27:00,50.0,46.0,29.90,WSW,240,4.0,10.0,87,0.00,,,0.00,weatherlink.com 1.10,2013-03-30 18:27:00,
2013-03-30 13:42:00,50.1,47.0,29.90,West,278,6.0,6.0,88,0.00,,,0.00,weatherlink.com 1.10,2013-03-30 18:42:00,
2013-03-30 13:57:00,50.6,47.0,29.89,WSW,254,3.0,5.0,87,0.00,,,0.00,weatherlink.com 1.10,2013-03-30 18:57:00,
2013-03-30 14:27:00,52.2,48.0,29.88,West,262,0.0,6.0,84,0.00,,,0.00,weatherlink.com 1.10,2013-03-30 19:27:00,
2013-03-30 14:42:00,54.9,49.0,29.88,NW,310,3.0,5.0,79,0.00,,,0.00,weatherlink.com 1.10,2013-03-30 19:42:00,
2013-03-30 14:57:00,54.7,47.0,29.88,NNW,332,3.0,10.0,74,0.00,,,0.00,weatherlink.com 1.10,2013-03-30 19:57:00,
2013-03-30 15:12:00,54.3,47.0,29.88,NW,316,6.0,12.0,75,0.00,,,0.00,weatherlink.com 1.10,2013-03-30 20:12:00,
2013-03-30 15:27:00,55.1,45.0,29.88,North,355,4.0,12.0,70,0.00,,,0.00,weatherlink.com 1.10,2013-03-30 20:27:00,
2013-03-30 15:42:00,55.1,46.0,29.88,NW,325,5.0,12.0,71,0.00,,,0.00,weatherlink.com 1.10,2013-03-30 20:42:00,
2013-03-30 15:57:00,54.5,46.0,29.88,NW,317,6.0,12.0,72,0.00,,,0.00,weatherlink.com 1.10,2013-03-30 20:57:00,
2013-03-30 16:12:00,54.4,47.0,29.88,WNW,293,7.0,12.0,75,0.00,,,0.00,weatherlink.com 1.10,2013-03-30 21:12:00,
2013-03-30 16:27:00,55.0,46.0,29.88,NW,307,9.0,11.0,72,0.00,,,0.00,weatherlink.com 1.10,2013-03-30 21:27:00,
2013-03-30 16:42:00,54.9,45.0,29.88,NNW,339,8.0,12.0,70,0.00,,,0.00,weatherlink.com 1.10,2013-03-30 21:42:00,
2013-03-30 16:57:00,54.7,45.0,29.88,NNW,333,10.0,12.0,69,0.00,,,0.00,weatherlink.com 1.10,2013-03-30 21:57:00,
2013-03-30 17:12:00,54.4,44.0,29.88,NW,309,7.0,11.0,68,0.00,,,0.00,weatherlink.com 1.10,2013-03-30 22:12:00,
2013-03-30 17:27:00,54.0,45.0,29.88,NNW,340,2.0,9.0,72,0.00,,,0.00,weatherlink.com 1.10,2013-03-30 22:27:00,
2013-03-30 17:56:00,53.5,44.0,29.87,NNW,330,4.0,9.0,71,0.00,,,0.00,weatherlink.com 1.10,2013-03-30 22:56:00,
2013-03-30 18:11:00,53.0,43.0,29.88,NNW,336,2.0,8.0,70,0.00,,,0.00,weatherlink.com 1.10,2013-03-30 23:11:00,
2013-03-30 18:26:00,52.6,44.0,29.88,NNW,330,2.0,10.0,73,0.00,,,0.00,weatherlink.com 1.10,2013-03-30 23:26:00,
2013-03-30 18:41:00,51.9,44.0,29.88,NNE,20,5.0,7.0,75,0.00,,,0.00,weatherlink.com 1.10,2013-03-30 23:41:00,
2013-03-30 18:56:00,51.0,44.0,29.88,NW,316,2.0,6.0,77,0.00,,,0.00,weatherlink.com 1.10,2013-03-30 23:56:00,
2013-03-30 19:11:00,50.3,44.0,29.88,North,353,4.0,5.0,79,0.00,,,0.00,weatherlink.com 1.10,2013-03-31 00:11:00,
2013-03-30 19:26:00,49.0,43.0,29.87,North,355,1.0,6.0,80,0.00,,,0.00,weatherlink.com 1.10,2013-03-31 00:26:00,
2013-03-30 19:41:00,47.9,43.0,29.87,NNW,330,1.0,4.0,82,0.00,,,0.00,weatherlink.com 1.10,2013-03-31 00:41:00,
2013-03-30 19:56:00,46.9,42.0,29.87,NNW,342,1.0,2.0,84,0.00,,,0.00,weatherlink.com 1.10,2013-03-31 00:56:00,
2013-03-30 20:11:00,45.8,42.0,29.88,NW,304,0.0,1.0,86,0.00,,,0.00,weatherlink.com 1.10,2013-03-31 01:11:00,
2013-03-30 20:26:00,44.5,41.0,29.89,NW,325,0.0,2.0,88,0.00,,,0.00,weatherlink.com 1.10,2013-03-31 01:26:00,
2013-03-30 20:41:00,43.9,41.0,29.89,NW,326,0.0,2.0,89,0.00,,,0.00,weatherlink.com 1.10,2013-03-31 01:41:00,
2013-03-30 20:56:00,43.4,40.0,29.89,NNW,338,1.0,2.0,89,0.00,,,0.00,weatherlink.com 1.10,2013-03-31 01:56:00,
2013-03-30 21:11:00,43.7,41.0,29.89,NW,309,1.0,3.0,89,0.00,,,0.00,weatherlink.com 1.10,2013-03-31 02:11:00,
2013-03-30 21:26:00,43.0,40.0,29.89,NW,311,1.0,6.0,89,0.00,,,0.00,weatherlink.com 1.10,2013-03-31 02:26:00,
2013-03-30 21:41:00,42.1,39.0,29.90,WNW,303,0.0,0.0,90,0.00,,,0.00,weatherlink.com 1.10,2013-03-31 02:41:00,
2013-03-30 21:56:00,41.3,39.0,29.90,WNW,294,0.0,1.0,91,0.00,,,0.00,weatherlink.com 1.10,2013-03-31 02:56:00,
2013-03-30 22:11:00,40.3,38.0,29.90,NW,310,0.0,0.0,92,0.00,,,0.00,weatherlink.com 1.10,2013-03-31 03:11:00,
2013-03-30 22:26:00,39.5,38.0,29.90,NW,316,0.0,0.0,93,0.00,,,0.00,weatherlink.com 1.10,2013-03-31 03:26:00,
2013-03-30 22:41:00,39.0,38.0,29.91,NW,322,0.0,2.0,94,0.00,,,0.00,weatherlink.com 1.10,2013-03-31 03:41:00,
2013-03-30 22:56:00,38.6,37.0,29.91,NNW,333,1.0,3.0,94,0.00,,,0.00,weatherlink.com 1.10,2013-03-31 03:56:00,
2013-03-30 23:11:00,38.7,37.0,29.91,NNW,328,0.0,6.0,94,0.00,,,0.00,weatherlink.com 1.10,2013-03-31 04:11:00,
2013-03-30 23:26:00,38.1,36.0,29.90,NNW,337,3.0,4.0,93,0.00,,,0.00,weatherlink.com 1.10,2013-03-31 04:26:00,
2013-03-30 23:41:00,37.3,36.0,29.90,NNW,333,3.0,4.0,94,0.00,,,0.00,weatherlink.com 1.10,2013-03-31 04:41:00,
2013-03-30 23:57:00,36.7,35.0,29.90,NNW,339,2.0,4.0,93,0.00,,,0.00,weatherlink.com 1.10,2013-03-31 04:57:00,